Weather History for Elkins, WV

Change the Weather History Date:

Wednesday, February 13, 2013

  Actual Average Record
Temperature  
Mean Temperature 32 °F 32 °F  
Max Temperature 40 °F 42 °F 65 °F (1938)
Min Temperature 24 °F 21 °F -11 °F (1983)
Degree Days  
Heating Degree Days 33 33  
Month to date heating degree days 466 445  
Since 1 July heating degree days 3719 3846  
Cooling Degree Days 0 0  
Month to date cooling degree days 0 0  
Year to date cooling degree days 0 0  
Moisture  
Dew Point 28 °F    
Average Humidity 73    
Maximum Humidity 92    
Minimum Humidity 54    
Precipitation  
Precipitation 0.28 in 0.11 in 1.11 in (1971)
Month to date precipitation 1.24 1.39  
Year to date precipitation 5.75 4.62  
Snow  
Snow 1.80 in - - ()
Month to date snowfall 13.2  
Since 1 September snowfall 51.3  
Snow Depth 0.00 in    
Sea Level Pressure  
Sea Level Pressure 29.73 in    
Wind  
Wind Speed 3 mph (WNW)    
Max Wind Speed 14 mph    
Max Gust Speed 20 mph    
Visibility 4 miles    
Events Fog , Snow    
T = Trace of Precipitation, MM = Missing Value Source: NWS Daily Summary

Daily Weather History Graph

Daily Weather History Graph

Search for Another Location

Airport:

Trip Planner

Search our weather history database for the weather conditions in past years. The results will help you decide how hot, cold, wet, or windy it might be!

Date:

Astronomy

Feb. 13, 2013 Rise Set
Actual Time 7:12 AM EST 5:54 PM EST
Civil Twilight 6:45 AM EST 6:22 PM EST
Nautical Twilight 6:14 AM EST 6:53 PM EST
Astronomical Twilight 5:43 AM EST 7:24 PM EST
Moon 8:43 AM EST (2/13) 9:53 PM EST (2/13)
Length of Visible Light 11h 36m
Length of Day
10h 42m
Waxing Crescent, 13% of the Moon is Illuminated
Feb 13
Waxing Crescent
Feb 17
First Quarter
Feb 25
Full
Mar 4
Last Quarter
Mar 11
New

Hourly Weather History & Observations

Time (EST) Temp. Windchill Dew Point Humidity Pressure Visibility Wind Dir Wind Speed Gust Speed Precip Events Conditions
12:51 AM 25.0 °F - 19.9 °F 81% 29.96 in 10.0 mi Calm Calm - N/A   Clear
1:51 AM 24.1 °F - 19.9 °F 84% 29.95 in 10.0 mi Calm Calm - N/A   Clear
2:51 AM 26.1 °F - 21.9 °F 84% 29.91 in 10.0 mi Calm Calm - N/A   Clear
3:51 AM 26.1 °F - 21.9 °F 84% 29.90 in 10.0 mi Calm Calm - N/A   Clear
4:51 AM 27.0 °F - 23.0 °F 85% 29.89 in 9.0 mi Calm Calm - N/A   Overcast
5:51 AM 28.0 °F - 24.1 °F 85% 29.87 in 9.0 mi Calm Calm - N/A   Overcast
6:51 AM 27.0 °F - 23.0 °F 85% 29.85 in 9.0 mi Calm Calm - N/A   Mostly Cloudy
7:51 AM 30.0 °F - 24.1 °F 79% 29.85 in 8.0 mi Calm Calm - N/A   Overcast
8:51 AM 30.9 °F 27.5 °F 25.0 °F 79% 29.81 in 10.0 mi West 3.5 mph - N/A   Overcast
9:51 AM 34.0 °F - 23.0 °F 64% 29.78 in 10.0 mi Calm Calm - N/A   Overcast
10:51 AM 35.1 °F 32.2 °F 24.1 °F 64% 29.76 in 10.0 mi WSW 3.5 mph - N/A   Overcast
11:51 AM 39.9 °F 33.4 °F 24.1 °F 53% 29.76 in 10.0 mi South 10.4 mph - N/A   Overcast
12:16 PM 37.4 °F 30.3 °F 28.4 °F 70% 29.70 in 3.0 mi SSE 10.4 mph 18.4 mph 0.00 in Snow Light Snow
12:23 PM 37.4 °F 31.4 °F 30.2 °F 75% 29.69 in 2.5 mi SSE 8.1 mph 18.4 mph 0.00 in Snow Light Snow
12:31 PM 37.4 °F 32.8 °F 30.2 °F 75% 29.68 in 4.0 mi SSE 5.8 mph - 0.00 in Snow Light Snow
12:51 PM 37.0 °F - 30.9 °F 79% 29.73 in 9.0 mi Calm Calm - 0.00 in   Overcast
1:12 PM 35.6 °F 30.7 °F 30.2 °F 81% 29.67 in 1.5 mi SW 5.8 mph - 0.01 in Snow Light Snow
1:16 PM 33.8 °F 29.6 °F 30.2 °F 87% 29.67 in 0.8 mi SSW 4.6 mph - 0.02 in Snow Light Snow
1:40 PM 33.8 °F - 30.2 °F 87% 29.65 in 0.2 mi Calm Calm - 0.07 in Fog , Snow Heavy Snow
1:51 PM 33.1 °F - 30.0 °F 89% 29.72 in 0.2 mi Calm Calm - 0.10 in Fog , Snow Heavy Snow
1:58 PM 33.8 °F - 30.2 °F 87% 29.64 in 0.5 mi Calm Calm - 0.02 in Fog , Snow Light Snow
2:09 PM 33.8 °F - 32.0 °F 93% 29.63 in 1.2 mi Calm Calm - 0.03 in Snow Light Snow
2:16 PM 33.8 °F - 30.2 °F 87% 29.63 in 1.2 mi Calm Calm - 0.03 in Snow Light Snow
2:26 PM 33.8 °F - 30.2 °F 87% 29.63 in 1.0 mi Calm Calm - 0.03 in Snow Light Snow
2:51 PM 33.1 °F - 30.9 °F 92% 29.68 in 1.0 mi Calm Calm - 0.05 in Snow Light Snow
3:03 PM 33.8 °F - 30.2 °F 87% 29.61 in 0.5 mi Calm Calm - 0.01 in Fog , Snow Snow
3:09 PM 33.8 °F - 30.2 °F 87% 29.60 in 0.5 mi Calm Calm - 0.02 in Fog , Snow Snow
3:15 PM 33.8 °F - 30.2 °F 87% 29.60 in 1.0 mi Calm Calm - 0.02 in Snow Light Snow
3:24 PM 33.8 °F - 30.2 °F 87% 29.60 in 2.0 mi Calm Calm - 0.02 in Snow Light Snow
3:37 PM 33.8 °F 30.8 °F 30.2 °F 87% 29.60 in 4.0 mi NNW 3.5 mph - 0.02 in Snow Light Snow
3:51 PM 33.1 °F 26.9 °F 30.9 °F 92% 29.68 in 5.0 mi NNW 6.9 mph - 0.02 in Snow Light Snow
4:05 PM 33.8 °F 29.6 °F 30.2 °F 87% 29.62 in 6.0 mi NNW 4.6 mph - 0.00 in   Overcast
4:17 PM 33.8 °F - 30.2 °F 87% 29.61 in 2.5 mi Calm Calm - 0.00 in Snow Light Snow
4:21 PM 33.8 °F - 30.2 °F 87% 29.62 in 1.8 mi Calm Calm - 0.00 in Snow Light Snow
4:34 PM 33.8 °F - 32.0 °F 93% 29.62 in 0.8 mi Calm Calm - 0.01 in Snow Light Snow
4:43 PM 33.8 °F - 30.2 °F 87% 29.63 in 0.8 mi Calm Calm - 0.02 in Snow Light Snow
4:51 PM 33.1 °F - 30.9 °F 92% 29.70 in 1.0 mi Calm Calm - 0.02 in Snow Light Snow
5:05 PM 33.8 °F - 32.0 °F 93% 29.63 in 0.8 mi Calm Calm - 0.01 in Snow Light Snow
5:13 PM 33.8 °F - 30.2 °F 87% 29.63 in 0.8 mi Calm Calm - 0.02 in Snow Light Snow
5:24 PM 33.8 °F - 30.2 °F 87% 29.63 in 0.8 mi Calm Calm - 0.03 in Snow Light Snow
5:33 PM 33.8 °F - 30.2 °F 87% 29.64 in 1.0 mi Calm Calm - 0.03 in Snow Light Snow
5:44 PM 33.8 °F 29.6 °F 30.2 °F 87% 29.65 in 0.8 mi WNW 4.6 mph - 0.03 in Snow Light Snow
5:51 PM 33.1 °F 24.9 °F 30.0 °F 89% 29.73 in 0.5 mi NW 10.4 mph - 0.04 in Fog , Snow Snow
6:01 PM 33.8 °F 26.4 °F 30.2 °F 87% 29.67 in 1.0 mi WNW 9.2 mph - 0.01 in Snow Light Snow
6:13 PM 33.8 °F 27.7 °F 30.2 °F 87% 29.68 in 1.5 mi Variable 6.9 mph - 0.02 in Snow Light Snow
6:24 PM 33.8 °F 27.0 °F 30.2 °F 87% 29.68 in 2.5 mi NNW 8.1 mph - 0.02 in Snow Light Snow
6:31 PM 33.8 °F 28.6 °F 30.2 °F 87% 29.69 in 2.0 mi NW 5.8 mph - 0.02 in Snow Light Snow
6:51 PM 33.1 °F 25.5 °F 30.0 °F 89% 29.77 in 2.5 mi NW 9.2 mph - 0.02 in Snow Light Snow
7:06 PM 33.8 °F 28.6 °F 30.2 °F 87% 29.71 in 4.0 mi NW 5.8 mph - 0.00 in Snow Light Snow
7:19 PM 33.8 °F 28.6 °F 30.2 °F 87% 29.71 in 2.5 mi NW 5.8 mph - 0.00 in Snow Light Snow
7:27 PM 33.8 °F 28.6 °F 30.2 °F 87% 29.72 in 2.0 mi NW 5.8 mph - 0.01 in Snow Light Snow
7:31 PM 33.8 °F 28.6 °F 30.2 °F 87% 29.72 in 3.0 mi NW 5.8 mph - 0.01 in Snow Light Snow
7:46 PM 32.0 °F 23.6 °F 30.2 °F 93% 29.73 in 2.0 mi WNW 10.4 mph - 0.01 in Snow Light Snow
7:51 PM 32.0 °F 25.6 °F 30.0 °F 92% 29.80 in 1.5 mi NW 6.9 mph 16.1 mph 0.01 in Snow Light Snow
8:13 PM 32.0 °F 28.7 °F 30.2 °F 93% 29.74 in 2.5 mi WNW 3.5 mph - 0.01 in Snow Light Snow
8:38 PM 32.0 °F 27.5 °F 30.2 °F 93% 29.74 in 3.0 mi NW 4.6 mph - 0.01 in Snow Light Snow
8:44 PM 32.0 °F 27.5 °F 28.4 °F 87% 29.75 in 5.0 mi NNW 4.6 mph - 0.01 in Snow Light Snow
8:51 PM 32.0 °F 27.5 °F 28.9 °F 88% 29.82 in 4.0 mi NW 4.6 mph - 0.01 in Snow Light Snow
8:58 PM 32.0 °F 26.4 °F 28.4 °F 87% 29.76 in 5.0 mi NW 5.8 mph - 0.00 in Snow Light Snow
9:17 PM 32.0 °F 25.6 °F 28.4 °F 87% 29.77 in 3.0 mi NW 6.9 mph - 0.01 in Snow Light Snow
9:46 PM 32.0 °F 24.8 °F 28.4 °F 87% 29.78 in 9.0 mi NW 8.1 mph - 0.01 in   Overcast
9:51 PM 32.0 °F 22.5 °F 28.0 °F 85% 29.85 in 8.0 mi WNW 12.7 mph - 0.01 in   Overcast
10:28 PM 32.0 °F 26.4 °F 28.4 °F 87% 29.80 in 4.0 mi West 5.8 mph - 0.00 in Snow Light Snow
10:51 PM 32.0 °F 26.4 °F 27.0 °F 82% 29.86 in 3.0 mi WNW 5.8 mph - 0.00 in Snow Light Snow
11:51 PM 30.9 °F 23.5 °F 28.0 °F 89% 29.89 in 10.0 mi West 8.1 mph - 0.00 in   Overcast